When you browse on this site, cookies collect data to enhance your experience and personalize the content and advertising you see.
Visit our Privacy Policy to learn more. By continuing to use the site, you agree to this use of cookies and data.
  • En España
  • Lista de países
  • Para 7 días
  • Temperatura del agua
  • El tiempo en el mapa
  • Informadores
  • user-avatar
    Iniciar sesión

    Tiempo cada hora Borschev

    Hoy, 6 Junio, Sábado

    Tiempo Temperatura Precipitaciones Viento Presión Humedad
    00:00 +17°C° 0 mm 2 mps 730 mmHg 82%
    01:00 +17°C° 0 mm 2 mps 730 mmHg 81%
    02:00 +18°C° 0 mm 1 mps 730 mmHg 81%
    03:00 +18°C° 0.6 mm 1 mps 731 mmHg 83%
    04:00 +18°C° 0.6 mm 1 mps 731 mmHg 85%
    05:00 +18°C° 0.6 mm 1 mps 731 mmHg 87%
    06:00 +19°C° 0 mm 1 mps 732 mmHg 84%
    07:00 +20°C° 0 mm 2 mps 732 mmHg 81%
    08:00 +21°C° 0 mm 3 mps 733 mmHg 78%
    09:00 +23°C° 0.2 mm 2 mps 733 mmHg 74%
    10:00 +24°C° 0.2 mm 2 mps 733 mmHg 69%
    11:00 +25°C° 0.2 mm 2 mps 734 mmHg 65%
    12:00 +26°C° 0 mm 2 mps 734 mmHg 62%
    13:00 +26°C° 0 mm 1 mps 734 mmHg 59%
    14:00 +27°C° 0 mm 1 mps 734 mmHg 57%
    15:00 +25°C° 1.1 mm 2 mps 734 mmHg 66%
    16:00 +24°C° 1.1 mm 3 mps 733 mmHg 76%
    17:00 +21°C° 1.1 mm 4 mps 733 mmHg 85%
    18:00 +20°C° 1.2 mm 3 mps 733 mmHg 88%
    19:00 +19°C° 1.2 mm 2 mps 733 mmHg 90%
    20:00 +20°C° 1.2 mm 1 mps 733 mmHg 92%
    21:00 +18°C° 0.2 mm 2 mps 733 mmHg 92%
    22:00 +18°C° 0.2 mm 2 mps 733 mmHg 93%
    23:00 +18°C° 0.2 mm 3 mps 733 mmHg 93%

    Mañana, 7 Junio, Domingo

    Tiempo Temperatura Precipitaciones Viento Presión Humedad
    00:00 +18°C° 0.2 mm 3 mps 733 mmHg 93%
    01:00 +18°C° 0.2 mm 3 mps 733 mmHg 93%
    02:00 +18°C° 0.2 mm 3 mps 733 mmHg 93%
    03:00 +17°C° 0.1 mm 3 mps 733 mmHg 93%
    04:00 +17°C° 0.1 mm 3 mps 733 mmHg 93%
    05:00 +17°C° 0.1 mm 4 mps 733 mmHg 93%
    06:00 +18°C° 0 mm 4 mps 733 mmHg 90%
    07:00 +19°C° 0 mm 5 mps 733 mmHg 86%
    08:00 +19°C° 0 mm 5 mps 733 mmHg 82%
    09:00 +21°C° 0 mm 6 mps 733 mmHg 78%
    10:00 +22°C° 0 mm 7 mps 734 mmHg 73%
    11:00 +23°C° 0 mm 7 mps 734 mmHg 69%
    12:00 +24°C° 0 mm 8 mps 734 mmHg 67%
    13:00 +24°C° 0 mm 8 mps 734 mmHg 65%
    14:00 +26°C° 0 mm 8 mps 734 mmHg 64%
    15:00 +24°C° 0 mm 7 mps 733 mmHg 66%
    16:00 +24°C° 0 mm 7 mps 733 mmHg 69%
    17:00 +24°C° 0 mm 6 mps 733 mmHg 72%
    18:00 +23°C° 0 mm 6 mps 733 mmHg 74%
    19:00 +21°C° 0 mm 5 mps 733 mmHg 75%
    20:00 +20°C° 0 mm 4 mps 733 mmHg 77%
    21:00 +20°C° 0 mm 4 mps 733 mmHg 78%
    22:00 +19°C° 0 mm 4 mps 734 mmHg 80%
    23:00 +18°C° 0 mm 4 mps 734 mmHg 81%

    Pasado mañana, 8 Junio, Lunes

    Tiempo Temperatura Precipitaciones Viento Presión Humedad
    00:00 +18°C° 0 mm 3 mps 734 mmHg 80%
    01:00 +17°C° 0 mm 3 mps 734 mmHg 79%
    02:00 +16°C° 0 mm 2 mps 734 mmHg 78%
    03:00 +16°C° 0 mm 3 mps 734 mmHg 79%
    04:00 +16°C° 0 mm 3 mps 733 mmHg 79%
    05:00 +16°C° 0 mm 3 mps 733 mmHg 79%
    06:00 +17°C° 0 mm 3 mps 733 mmHg 79%
    07:00 +19°C° 0 mm 3 mps 733 mmHg 78%
    08:00 +20°C° 0 mm 4 mps 734 mmHg 77%
    09:00 +22°C° 0 mm 4 mps 734 mmHg 74%
    10:00 +23°C° 0 mm 5 mps 734 mmHg 71%
    11:00 +25°C° 0 mm 5 mps 734 mmHg 68%
    12:00 +26°C° 0 mm 5 mps 734 mmHg 68%
    13:00 +26°C° 0 mm 5 mps 733 mmHg 67%
    14:00 +27°C° 0 mm 5 mps 733 mmHg 66%
    15:00 +26°C° 0 mm 5 mps 733 mmHg 68%
    16:00 +26°C° 0 mm 5 mps 733 mmHg 70%
    17:00 +26°C° 0 mm 4 mps 733 mmHg 71%
    18:00 +25°C° 0.3 mm 3 mps 733 mmHg 75%
    19:00 +23°C° 0.3 mm 2 mps 733 mmHg 78%
    20:00 +22°C° 0.3 mm 1 mps 733 mmHg 82%
    21:00 +21°C° 0.4 mm 1 mps 733 mmHg 83%
    22:00 +19°C° 0.4 mm 2 mps 733 mmHg 85%
    23:00 +19°C° 0.4 mm 2 mps 733 mmHg 87%

    9 Junio, Martes

    Tiempo Temperatura Precipitaciones Viento Presión Humedad
    00:00 +20°C° 0 mm 1 mps 733 mmHg 87%
    01:00 +19°C° 0 mm 1 mps 733 mmHg 88%
    02:00 +19°C° 0 mm 1 mps 733 mmHg 89%
    03:00 +19°C° 0 mm 1 mps 733 mmHg 90%
    04:00 +19°C° 0 mm 1 mps 733 mmHg 90%
    05:00 +18°C° 0 mm 1 mps 733 mmHg 91%
    06:00 +19°C° 0.1 mm 1 mps 733 mmHg 88%
    07:00 +21°C° 0.1 mm 1 mps 734 mmHg 86%
    08:00 +22°C° 0.1 mm 1 mps 734 mmHg 83%
    09:00 +23°C° 0 mm 1 mps 734 mmHg 78%
    10:00 +24°C° 0 mm 1 mps 735 mmHg 74%
    11:00 +25°C° 0 mm 2 mps 735 mmHg 69%
    12:00 +26°C° 0.1 mm 2 mps 735 mmHg 67%
    13:00 +26°C° 0.1 mm 2 mps 734 mmHg 64%
    14:00 +27°C° 0.1 mm 2 mps 734 mmHg 62%
    15:00 +26°C° 0.6 mm 2 mps 734 mmHg 65%
    16:00 +26°C° 0.6 mm 2 mps 734 mmHg 69%
    17:00 +26°C° 0.6 mm 2 mps 734 mmHg 72%
    18:00 +24°C° 0.6 mm 2 mps 734 mmHg 77%
    19:00 +23°C° 0.6 mm 2 mps 734 mmHg 82%
    20:00 +22°C° 0.6 mm 1 mps 734 mmHg 87%
    21:00 +21°C° 0.5 mm 1 mps 734 mmHg 88%
    22:00 +20°C° 0.5 mm 1 mps 734 mmHg 89%
    23:00 +20°C° 0.5 mm 1 mps 734 mmHg 91%

    10 Junio, Miércoles

    Tiempo Temperatura Precipitaciones Viento Presión Humedad
    00:00 +19°C° 0.3 mm 1 mps 734 mmHg 92%
    01:00 +19°C° 0.3 mm 1 mps 734 mmHg 92%
    02:00 +18°C° 0.3 mm 1 mps 734 mmHg 93%
    03:00 +18°C° 0.1 mm 1 mps 734 mmHg 94%
    04:00 +18°C° 0.1 mm 1 mps 734 mmHg 95%
    05:00 +18°C° 0.1 mm 1 mps 734 mmHg 95%
    06:00 +19°C° 0.1 mm 1 mps 734 mmHg 93%
    07:00 +19°C° 0.1 mm 2 mps 734 mmHg 90%
    08:00 +21°C° 0.1 mm 2 mps 734 mmHg 88%
    09:00 +21°C° 0.2 mm 2 mps 734 mmHg 86%
    10:00 +23°C° 0.2 mm 2 mps 734 mmHg 84%
    11:00 +24°C° 0.2 mm 2 mps 734 mmHg 82%
    12:00 +25°C° 1.1 mm 2 mps 734 mmHg 75%
    13:00 +26°C° 1.1 mm 1 mps 734 mmHg 69%
    14:00 +27°C° 1.1 mm 1 mps 734 mmHg 62%
    15:00 +27°C° 0.9 mm 1 mps 734 mmHg 66%
    16:00 +26°C° 0.9 mm 1 mps 733 mmHg 70%
    17:00 +26°C° 0.9 mm 2 mps 733 mmHg 74%
    18:00 +24°C° 0.3 mm 2 mps 733 mmHg 77%
    19:00 +23°C° 0.3 mm 2 mps 733 mmHg 80%
    20:00 +22°C° 0.3 mm 1 mps 733 mmHg 84%
    21:00 +21°C° 0.7 mm 1 mps 733 mmHg 85%
    22:00 +20°C° 0.7 mm 1 mps 734 mmHg 86%
    23:00 +20°C° 0.7 mm 1 mps 734 mmHg 87%

    11 Junio, Jueves

    Tiempo Temperatura Precipitaciones Viento Presión Humedad
    00:00 +20°C° 0.5 mm 1 mps 734 mmHg 89%
    01:00 +19°C° 0.5 mm 1 mps 734 mmHg 90%
    02:00 +19°C° 0.5 mm 1 mps 733 mmHg 91%
    03:00 +19°C° 0.2 mm 1 mps 733 mmHg 91%
    04:00 +17°C° 0.2 mm 0 mps 733 mmHg 92%
    05:00 +17°C° 0.2 mm 0 mps 733 mmHg 92%
    06:00 +18°C° 0.3 mm 0 mps 733 mmHg 90%
    07:00 +21°C° 0.3 mm 1 mps 734 mmHg 88%
    08:00 +22°C° 0.3 mm 1 mps 734 mmHg 85%
    09:00 +23°C° 0.1 mm 1 mps 734 mmHg 81%
    10:00 +24°C° 0.1 mm 1 mps 734 mmHg 77%
    11:00 +26°C° 0.1 mm 1 mps 734 mmHg 73%
    12:00 +26°C° 1.2 mm 1 mps 733 mmHg 71%
    13:00 +26°C° 1.2 mm 2 mps 733 mmHg 70%
    14:00 +27°C° 1.2 mm 2 mps 733 mmHg 69%
    15:00 +26°C° 1.8 mm 2 mps 733 mmHg 74%
    16:00 +25°C° 1.8 mm 2 mps 733 mmHg 79%
    17:00 +24°C° 1.8 mm 2 mps 733 mmHg 83%
    18:00 +23°C° 0.1 mm 2 mps 733 mmHg 84%
    19:00 +22°C° 0.1 mm 1 mps 733 mmHg 84%
    20:00 +22°C° 0.1 mm 1 mps 733 mmHg 85%
    21:00 +21°C° 0.1 mm 1 mps 733 mmHg 86%
    22:00 +21°C° 0.1 mm 1 mps 733 mmHg 86%
    23:00 +21°C° 0.1 mm 1 mps 733 mmHg 87%
    Mostrar más